Hourly Data Report for October 01, 2013

All times are specified in Local Standard Time (LST). Add 1 hour to adjust for Daylight Saving Time where and when it is observed.

KAMLOOPS A
BRITISH COLUMBIA

50°42'09.000" N
120°26'55.000" W
345.30 m
1163781
71887
YKA

Download Data

Hourly Data (October 2013)
Hourly Data Report for October 1, 2013
Temp Definition
°C
Dew Point Temp Definition
°C
Rel Hum Definition
%
Wind Dir Definition
10's deg

Wind Spd Definition
km/h
Visibility Definition
km
Stn Press Definition
kPa
Hmdx Definition


Wind Chill Definition


Weather Definition


TIME
00:00 Legend Double Dagger 11.5 -1.3 41 15 23 64.4 96.61     LegendNANA
01:00 Legend Double Dagger 10.1 -0.1 49 17 18 64.4 96.68     Mostly Cloudy
02:00 Legend Double Dagger 8.9 -0.9 50 25 13 64.4 96.75     LegendNANA
03:00 Legend Double Dagger 9.2 -0.7 50 19 13 64.4 96.81     LegendNANA
04:00 Legend Double Dagger 7.9 -0.1 57 20 6 64.4 96.87     Mostly Cloudy
05:00 Legend Double Dagger 6.8 0.0 62 19 8 64.4 96.93     LegendNANA
06:00 Legend Double Dagger 4.7 -1.3 65 28 4 64.4 96.99     LegendNANA
07:00 Legend Double Dagger 7.1 0.8 64 16 2 64.4 97.06     Mainly Clear
08:00 Legend Double Dagger 9.2 0.4 54 28 3 64.4 97.11     LegendNANA
09:00 Legend Double Dagger 11.2 0.4 47 10 5 64.4 97.13     LegendNANA
10:00 Legend Double Dagger 13.3 -0.3 39 9 17 64.4 97.12     Mostly Cloudy
11:00 Legend Double Dagger 13.4 -0.9 37 10 8 64.4 97.12     LegendNANA
12:00 Legend Double Dagger 13.2 -1.1 37 1 3 64.4 97.15     LegendNANA
13:00 Legend Double Dagger 13.4 -0.9 37 33 2 64.4 97.17     Cloudy
14:00 Legend Double Dagger 13.6 1.0 42 11 7 64.4 97.22     LegendNANA
15:00 Legend Double Dagger 12.8 0.3 42 15 14 64.4 97.23     LegendNANA
16:00 Legend Double Dagger 13.6 1.0 42 8 14 64.4 97.23     Mostly Cloudy
17:00 Legend Double Dagger 11.6 1.9 51 9 11 64.4 97.24     LegendNANA
18:00 Legend Double Dagger 9.2 1.9 60 19 3 64.4 97.31     LegendNANA
19:00 Legend Double Dagger 9.4 0.6 54 32 2 64.4 97.40     Mainly Clear
20:00 Legend Double Dagger 7.9 0.9 61 25 4 64.4 97.45     LegendNANA
21:00 Legend Double Dagger 5.9 0.5 68 26 8 64.4 97.54     LegendNANA
22:00 Legend Double Dagger 5.8 0.2 67 28 9 64.4 97.59     Mostly Cloudy
23:00 Legend Double Dagger 6.4 0.1 64 26 6 64.4 97.65     LegendNANA

Notes on Data Quality.

Legend

  • E = Estimated
  • M = Missing
  • NA = Not Available
  • ‡ = Partner data that is not subject to review by the National Climate Archives
Date modified: